Hourly Weather Urganch

Today, 8 July, Wednesday

Time Temperature Precipitation Wind Pressure Humidity
00:00 +30°C° 0 mm 3 mps 745 mmHg 26%
01:00 +29°C° 0 mm 2 mps 745 mmHg 28%
02:00 +28°C° 0 mm 2 mps 745 mmHg 31%
03:00 +27°C° 0 mm 2 mps 745 mmHg 33%
04:00 +27°C° 0 mm 2 mps 745 mmHg 36%
05:00 +28°C° 0 mm 2 mps 745 mmHg 35%
06:00 +30°C° 0 mm 2 mps 745 mmHg 34%
07:00 +31°C° 0 mm 2 mps 746 mmHg 33%
08:00 +34°C° 0 mm 3 mps 745 mmHg 29%
09:00 +36°C° 0 mm 3 mps 745 mmHg 25%
10:00 +37°C° 0 mm 3 mps 746 mmHg 20%
11:00 +40°C° 0 mm 4 mps 745 mmHg 18%
12:00 +41°C° 0 mm 4 mps 745 mmHg 16%
13:00 +42°C° 0 mm 5 mps 745 mmHg 14%
14:00 +42°C° 0 mm 5 mps 744 mmHg 13%
15:00 +42°C° 0 mm 5 mps 744 mmHg 13%
16:00 +43°C° 0 mm 5 mps 744 mmHg 12%
17:00 +41°C° 0 mm 5 mps 744 mmHg 14%
18:00 +40°C° 0 mm 5 mps 744 mmHg 16%
19:00 +39°C° 0 mm 5 mps 744 mmHg 17%
20:00 +36°C° 0 mm 5 mps 744 mmHg 20%
21:00 +35°C° 0 mm 4 mps 744 mmHg 23%
22:00 +33°C° 0 mm 4 mps 744 mmHg 27%
23:00 +32°C° 0 mm 4 mps 744 mmHg 29%

Tomorrow, 9 July, Thursday

Time Temperature Precipitation Wind Pressure Humidity
00:00 +30°C° 0 mm 3 mps 744 mmHg 31%
01:00 +29°C° 0 mm 3 mps 744 mmHg 33%
02:00 +28°C° 0 mm 2 mps 744 mmHg 35%
03:00 +27°C° 0 mm 2 mps 744 mmHg 37%
04:00 +26°C° 0 mm 1 mps 744 mmHg 39%
05:00 +28°C° 0 mm 1 mps 744 mmHg 34%
06:00 +30°C° 0 mm 1 mps 744 mmHg 30%
07:00 +33°C° 0 mm 1 mps 744 mmHg 25%
08:00 +36°C° 0 mm 2 mps 744 mmHg 22%
09:00 +38°C° 0 mm 3 mps 744 mmHg 19%
10:00 +41°C° 0 mm 4 mps 744 mmHg 16%
11:00 +42°C° 0 mm 4 mps 744 mmHg 15%
12:00 +43°C° 0 mm 5 mps 743 mmHg 14%
13:00 +45°C° 0 mm 5 mps 743 mmHg 13%
14:00 +43°C° 0 mm 5 mps 742 mmHg 14%
15:00 +42°C° 0 mm 4 mps 742 mmHg 14%
16:00 +42°C° 0 mm 4 mps 742 mmHg 15%
17:00 +41°C° 0 mm 4 mps 742 mmHg 16%
18:00 +40°C° 0 mm 4 mps 742 mmHg 17%
19:00 +38°C° 0 mm 4 mps 742 mmHg 18%
20:00 +36°C° 0 mm 3 mps 742 mmHg 23%
21:00 +32°C° 0 mm 2 mps 742 mmHg 27%
22:00 +30°C° 0 mm 1 mps 742 mmHg 31%
23:00 +29°C° 0 mm 2 mps 742 mmHg 32%

Day after tomorrow, 10 July, Friday

Time Temperature Precipitation Wind Pressure Humidity
00:00 +29°C° 0 mm 2 mps 742 mmHg 33%
01:00 +29°C° 0 mm 2 mps 742 mmHg 33%
02:00 +28°C° 0 mm 3 mps 742 mmHg 36%
03:00 +27°C° 0 mm 3 mps 742 mmHg 39%
04:00 +26°C° 0 mm 3 mps 742 mmHg 42%
05:00 +28°C° 0 mm 5 mps 743 mmHg 38%
06:00 +29°C° 0 mm 6 mps 743 mmHg 35%
07:00 +32°C° 0 mm 7 mps 743 mmHg 31%
08:00 +34°C° 0 mm 7 mps 744 mmHg 27%
09:00 +36°C° 0 mm 7 mps 744 mmHg 23%
10:00 +39°C° 0 mm 7 mps 744 mmHg 19%
11:00 +40°C° 0 mm 7 mps 744 mmHg 17%
12:00 +41°C° 0 mm 7 mps 744 mmHg 15%
13:00 +43°C° 0 mm 7 mps 744 mmHg 14%
14:00 +43°C° 0 mm 8 mps 743 mmHg 14%
15:00 +42°C° 0 mm 9 mps 743 mmHg 14%
16:00 +42°C° 0 mm 9 mps 743 mmHg 14%
17:00 +40°C° 0 mm 9 mps 743 mmHg 16%
18:00 +39°C° 0 mm 8 mps 744 mmHg 18%
19:00 +38°C° 0 mm 8 mps 744 mmHg 20%
20:00 +35°C° 0 mm 7 mps 744 mmHg 22%
21:00 +34°C° 0 mm 7 mps 745 mmHg 25%
22:00 +32°C° 0 mm 6 mps 745 mmHg 27%
23:00 +32°C° 0 mm 6 mps 745 mmHg 28%

11 July, Saturday

Time Temperature Precipitation Wind Pressure Humidity
00:00 +30°C° 0 mm 5 mps 745 mmHg 28%
01:00 +29°C° 0 mm 5 mps 745 mmHg 29%
02:00 +29°C° 0 mm 5 mps 745 mmHg 30%
03:00 +29°C° 0 mm 4 mps 745 mmHg 30%
04:00 +28°C° 0 mm 4 mps 745 mmHg 30%
05:00 +30°C° 0 mm 5 mps 745 mmHg 27%
06:00 +33°C° 0 mm 5 mps 746 mmHg 24%
07:00 +35°C° 0 mm 5 mps 746 mmHg 20%
08:00 +36°C° 0 mm 6 mps 746 mmHg 18%
09:00 +39°C° 0 mm 7 mps 746 mmHg 16%
10:00 +41°C° 0 mm 7 mps 747 mmHg 14%
11:00 +43°C° 0 mm 7 mps 746 mmHg 13%
12:00 +43°C° 0 mm 7 mps 746 mmHg 12%
13:00 +44°C° 0 mm 6 mps 745 mmHg 12%
14:00 +44°C° 0 mm 6 mps 745 mmHg 11%
15:00 +44°C° 0 mm 6 mps 745 mmHg 10%
16:00 +44°C° 0 mm 6 mps 744 mmHg 10%
17:00 +42°C° 0 mm 6 mps 744 mmHg 11%
18:00 +41°C° 0 mm 5 mps 744 mmHg 12%
19:00 +39°C° 0 mm 5 mps 744 mmHg 13%
20:00 +38°C° 0 mm 6 mps 745 mmHg 18%
21:00 +36°C° 0 mm 7 mps 745 mmHg 22%
22:00 +34°C° 0 mm 8 mps 745 mmHg 27%
23:00 +33°C° 0 mm 7 mps 745 mmHg 29%

12 July, Sunday

Time Temperature Precipitation Wind Pressure Humidity
00:00 +33°C° 0 mm 6 mps 745 mmHg 31%
01:00 +32°C° 0 mm 5 mps 745 mmHg 33%
02:00 +30°C° 0 mm 5 mps 744 mmHg 35%
03:00 +30°C° 0 mm 4 mps 744 mmHg 36%
04:00 +30°C° 0 mm 4 mps 744 mmHg 38%
05:00 +32°C° 0 mm 4 mps 744 mmHg 34%
06:00 +34°C° 0 mm 5 mps 744 mmHg 31%
07:00 +35°C° 0 mm 5 mps 744 mmHg 28%
08:00 +37°C° 0 mm 5 mps 744 mmHg 24%
09:00 +40°C° 0 mm 5 mps 744 mmHg 20%
10:00 +42°C° 0 mm 5 mps 744 mmHg 16%
11:00 +43°C° 0 mm 5 mps 744 mmHg 15%
12:00 +45°C° 0 mm 5 mps 743 mmHg 14%
13:00 +45°C° 0 mm 5 mps 743 mmHg 13%
14:00 +45°C° 0 mm 6 mps 743 mmHg 12%
15:00 +45°C° 0 mm 7 mps 743 mmHg 12%
16:00 +45°C° 0 mm 8 mps 742 mmHg 11%
17:00 +44°C° 0 mm 7 mps 742 mmHg 11%
18:00 +41°C° 0 mm 6 mps 742 mmHg 12%
19:00 +40°C° 0 mm 5 mps 742 mmHg 12%
20:00 +37°C° 0 mm 5 mps 742 mmHg 13%
21:00 +36°C° 0 mm 4 mps 742 mmHg 14%
22:00 +34°C° 0 mm 4 mps 742 mmHg 15%
23:00 +34°C° 0 mm 4 mps 742 mmHg 18%

13 July, Monday

Time Temperature Precipitation Wind Pressure Humidity
00:00 +33°C° 0 mm 5 mps 742 mmHg 21%
01:00 +33°C° 0 mm 5 mps 742 mmHg 23%
02:00 +32°C° 0 mm 6 mps 742 mmHg 22%
03:00 +32°C° 0 mm 6 mps 742 mmHg 21%
04:00 +32°C° 0 mm 6 mps 742 mmHg 19%
05:00 +33°C° 0 mm 6 mps 742 mmHg 17%
06:00 +34°C° 0 mm 7 mps 743 mmHg 16%
07:00 +35°C° 0 mm 8 mps 743 mmHg 14%
08:00 +36°C° 0 mm 7 mps 743 mmHg 13%
09:00 +39°C° 0 mm 7 mps 743 mmHg 12%
10:00 +40°C° 0 mm 7 mps 743 mmHg 11%
11:00 +41°C° 0 mm 7 mps 742 mmHg 10%
12:00 +42°C° 0 mm 6 mps 742 mmHg 9%
13:00 +45°C° 0 mm 6 mps 742 mmHg 8%
14:00 +45°C° 0 mm 6 mps 742 mmHg 7%
15:00 +45°C° 0 mm 6 mps 741 mmHg 7%
16:00 +46°C° 0 mm 6 mps 741 mmHg 6%
17:00 +45°C° 0 mm 6 mps 741 mmHg 7%
18:00 +42°C° 0 mm 5 mps 741 mmHg 8%
19:00 +41°C° 0 mm 4 mps 741 mmHg 9%
20:00 +40°C° 0 mm 5 mps 741 mmHg 10%
21:00 +37°C° 0 mm 5 mps 741 mmHg 11%
22:00 +36°C° 0 mm 6 mps 741 mmHg 12%
23:00 +35°C° 0 mm 5 mps 741 mmHg 13%
Show more